Погода в Маркелове

Россия / Томская область     56°42′14″N   83°33′50″E
темп.,
°C
ветер,
м/с
пор.,
м/с
влажн.,
%
обл.,
%
осадки,
мм/ч
давл.,
гПа
погр.,
м
17 июня, чт
чт1701:00+16ю3897100 5.9 1008166
04:00+14ююз269822 1.9 1008129
07:00+16зюз259825 1.9 1008179
10:00+21з247388 0.3 1008483
13:00+22зсз24675 2.3 1008918
16:00+24зюз245080 0.4 10061424
19:00+23зсз2656100 0.4 1006672
22:00+19ю1168100 0.0 100514
18 июня, пт
пт1801:00+16юз248413 0.0 100666
04:00+15юз2486100 0.0 100475
07:00+17юз31183100 0.0 1004362
10:00+18ююз018495 0.0 100369
13:00+27з474811 0.3 10011820
16:00+29зюз24439 0.0 10012083
19:00+28ююз24515 0.0 999872
22:00+21ююз24781 0.0 99860
19 июня, сб
сб1901:00+20ю4138360 0.0 998349
04:00+16ююз2295100 0.1 99713
07:00+18ююз2686100 0.2 998191
10:00+23ю246381 0.0 997668
13:00+27ююв4654100 0.0 9961356
16:00+25ююв7116632 0.6 9941189
19:00+20зюз598843 6.8 997848
22:00+14юз368973 0.0 999346
20 июня, вс
вс2001:00+11юз478776 0.0 1001483
04:00+10юз487488 0.0 1001787
07:00+10ююз5876100 0.0 10031062
10:00+11ююз4758100 0.0 10041242
13:00+12ююз695498 0.0 10051569
16:00+13ююз6115698 0.1 10061825
19:00+13ю51258100 0.1 10051757
22:00+10ю511875 0.4 1005628
21 июня, пн
пн2101:00+9ю5118248 0.4 1006809
04:00+8ююв378450 0.0 1006292
07:00+9юв4108581 0.0 1007370
10:00+15ююв59615 0.0 1006726
13:00+20ююв69449 0.0 10052076
16:00+19юв495490 0.0 10041834
19:00+17юв3958100 0.0 1004393
22:00+15в41066100 0.1 1003388